Main page
METAR-TAF:

METAR-TAF

Airports :

Abadeh, Iran

Abadeh Airport

latitude: 31-11N, longitude: 052-40E, elevation: 2004 m

Current weather observation

The report was made 36 minutes ago, at 19:00 UTC
Calm wind
Temperature 0°C
Humidity 74%
Pressure 1025 hPa
Visibility 10 km or more
no clouds below 1500 m and no cumulonimbus

METAR: OISA 171900Z 00000KT CAVOK M00/M04 Q1025

Time: 23:06 (19:36 UTC)


TAF: missing

Weather observations and forecasts of more than 4000 airports (METAR and TAF reports).

The available stations are represented by yellow and red dots on the map.

Hover mouse over dot to see the name of the station.

Then click to see weather observations and forecasts.

To change the map : click on the green buttons with a black cross to zoom in, on the green button with a dash to zoom out, or on the green arrows for adjacent maps.


METAR-TAF: